Wind_Speed
38 37 37 37 34 35 35 39 35 43 41 42 39 37 35 35 34 34 37 32 35 25
42 39 38 35 37 38 35 34 38 39 42 41 40 41 39 37 36 35 35 37 33 36
43 42 40 39 37 35 37 35 37 38 42 42 42 41 41 39 39 38 37 36 37 35
41 43 41 37 40 40 36 35 35 40 40 41 41 42 41 42 38 41 38 37 38 39
40 39 40 42 39 39 38 36 38 35 38 38 40 40 43 42 40 40 41 42 38 39
35 34 38 40 40 37 37 37 37 36 35 38 40 42 43 44 43 43 43 42 40 41
35 37 38 38 36 37 37 38 38 38 37 38 37 38 40 41 41 42 41 40 42 41
36 37 35 33 34 34 35 35 35 35 36 35 36 37 39 40 41 41 41 40 41 43
14 31 30 29 29 31 33 34 33 34 36 37 37 39 43 40 39 39 38 38 39 40
13 15 22 26 26 29 30 31 34 34 35 36 38 41 44 46 40 37 37 38 37 37
19 15 14 17 27 26 25 28 30 32 34 35 36 39 43 43 46 36 35 38 38 37
25 18 16 14 18 22 24 26 29 30 32 33 33 36 39 40 43 39 35 37 38 38
23 23 19 17 16 16 21 25 25 27 30 31 31 33 37 40 39 35 34 34 39 43
25 22 24 24 19 15 16 18 25 27 27 28 34 32 37 42 40 36 33 33 37 42
Wind_Direction
212 208 207 204 202 202 204 205 206 205 207 208 209 210 208 209 208 209 213 215 218 218
209 210 209 208 206 206 205 203 204 205 207 209 209 208 207 210 212 212 213 218 218 221
207 210 211 211 208 207 207 205 201 204 206 208 210 209 209 212 213 212 215 216 218 219
209 210 211 211 211 210 208 206 204 204 205 207 210 211 211 213 213 215 215 217 218 219
210 208 210 213 211 211 210 208 209 208 206 207 209 211 212 213 214 215 216 217 218 220
211 211 214 215 214 211 210 210 212 210 210 208 208 209 213 214 214 217 218 218 217 219
211 213 217 217 215 212 211 209 209 211 212 215 212 210 212 214 215 218 221 219 219 220
210 215 222 219 216 215 214 214 211 211 213 216 217 215 214 214 214 216 218 219 220 220
262 210 218 218 218 218 217 215 214 213 213 215 216 218 218 215 215 217 216 217 219 221
300 291 228 219 220 218 217 215 216 217 216 218 217 219 219 219 219 219 215 218 219 220
360 339 293 257 226 227 225 221 219 220 221 220 220 219 219 222 220 222 218 222 224 221
9 358 343 314 269 236 230 229 225 223 223 223 221 220 218 218 220 222 222 221 223 221
2 8 360 345 316 297 254 236 231 227 224 222 219 218 218 215 213 219 221 225 222 224
359 3 8 4 355 325 302 264 236 232 224 216 219 221 219 218 210 213 214 216 214 219
Height
716 721 724 729 734 739 743 748 755 760 767 773 780 787 792 796 799 803 807 809 811 814
708 714 717 720 724 729 733 738 746 752 758 764 771 776 782 787 790 795 798 801 804 807
695 702 707 713 715 720 725 731 736 742 748 755 761 767 772 776 781 785 788 792 796 798
686 692 700 703 706 711 717 723 728 732 738 745 751 757 762 765 770 774 778 782 786 787
676 684 689 692 696 702 707 714 719 724 729 735 741 747 751 755 759 763 767 769 775 777
670 677 679 682 687 693 699 704 711 716 721 725 729 735 739 744 748 751 754 759 764 766
663 666 669 673 679 684 688 693 698 704 710 716 720 724 729 734 738 742 745 749 752 756
652 658 662 667 671 675 680 685 689 695 699 706 712 715 718 723 727 730 734 739 742 744
646 649 655 659 663 669 672 677 681 684 689 694 698 703 708 714 717 721 725 728 731 734
649 647 647 652 657 660 664 669 670 675 679 683 686 691 696 704 709 712 714 718 722 724
656 653 648 647 649 654 657 660 663 666 670 675 676 681 686 693 700 704 706 710 712 714
662 658 654 649 647 647 650 653 655 659 663 665 668 672 677 685 692 696 698 700 703 704
668 662 658 654 650 647 645 646 649 652 654 657 661 664 670 676 681 686 690 690 692 694
672 667 661 656 652 649 645 642 643 644 646 649 653 658 661 667 670 672 679 680 682 685